Location: Unspecified
(0.0000°N, 0.0000°E)
Time: 19:03:38
(UTC+01:00)

Milstar 3 - Visible Passes

Search period start: 27 February 2017 00:00
Search period end: 09 March 2017 00:00
Orbit: 1097 x 5148 km, 28.2° (Epoch: 10 January)

Date Brightness Start Highest point End Pass type
(mag) Time Alt. Az. Time Alt. Az. Time Alt. Az.
27 Feb 5.5 02:55:08 53° ENE 02:55:08 53° ENE 03:14:56 10° ENE visible
27 Feb 5.5 05:28:45 33° WNW 05:41:02 52° NNW 06:12:45 10° NE visible
28 Feb 6.2 01:57:36 27° ENE 01:57:36 27° ENE 02:06:50 10° ENE visible
28 Feb 5.2 04:31:13 58° NW 04:34:35 62° NNW 05:05:38 10° NE visible
01 Mar 5.3 03:33:37 64° NNE 03:33:37 64° NNE 03:58:11 10° NE visible
01 Mar 5.9 06:07:13 18° WNW 06:25:42 42° NNW 06:56:00 10° NE visible
02 Mar 5.8 02:35:58 40° ENE 02:35:58 40° ENE 02:50:33 10° ENE visible
02 Mar 5.5 05:09:33 38° WNW 05:18:08 48° NNW 05:48:41 10° NE visible
03 Mar 6.4 01:38:15 18° ENE 01:38:15 18° ENE 01:42:55 10° ENE visible
03 Mar 5.3 04:11:51 56° NNW 04:11:55 56° NNW 04:41:10 10° NE visible
03 Mar 6.3 06:47:46 10° WNW 07:11:36 36° N 07:40:11 10° NE visible
04 Mar 5.5 03:14:05 50° NNE 03:14:05 50° NNE 03:33:37 10° NE visible
04 Mar 5.9 05:47:40 21° WNW 06:02:53 39° NNW 06:32:28 10° NE visible
05 Mar 6.1 02:16:17 29° NE 02:16:17 29° NE 02:26:14 10° ENE visible
05 Mar 5.5 04:49:52 39° NW 04:55:31 43° NNW 05:24:29 10° NE visible
06 Mar 6.7 01:18:26 11° ENE 01:18:26 11° ENE 01:19:09 10° ENE visible
06 Mar 5.4 03:52:01 49° N 03:52:01 49° N 04:16:36 10° NE visible
06 Mar 6.2 06:26:22 10° WNW 06:48:52 35° N 07:17:22 10° ENE visible
07 Mar 5.8 02:54:08 38° NE 02:54:08 38° NE 03:09:04 10° NE visible
07 Mar 5.8 05:27:42 23° NW 05:40:19 36° N 06:08:49 10° NE visible
08 Mar 6.3 01:56:13 21° NE 01:56:13 21° NE 02:02:04 10° NE visible
08 Mar 5.6 04:29:46 38° NNW 04:33:12 39° NNW 05:00:11 10° NE visible
08 Mar 5.0 21:50:03 10° S 21:50:37 12° S 21:50:37 12° S visible
